Miscellaneous Local Product
Issued by NWS Hastings, NE

Home | Current Version | Previous Version | Text Only | Print | Product List | Glossary Off
Versions: 1 2 3 4 5 6 7 8 9 10 11 12 13 14 15 16 17 18 19 20 21 22 23 24 25 26 27 28 29 30 31 32 33 34 35 36 37 38 39 40 41 42 43 44 45 46 47 48 49 50

000
AXUS43 KGID 220602
MISGRI

GID CWA HOURLY WEATHER ROUNDUP
NATIONAL WEATHER SERVICE HASTINGS NE
100 AM CDT FRI MAY 22 2015

NOTE: "FAIR" INDICATES FEW OR NO CLOUDS BELOW 12,000 FEET WITH NO
SIGNIFICANT WEATHER AND/OR OBSTRUCTIONS TO VISIBILITY.

...SOUTH CENTRAL NEBRASKA...

CITY           SKY/WX    TMP DP  RH WIND       PRES   REMARKS
GRAND ISLAND   PTCLDY    51  40  65 S5        30.23S
HASTINGS       MOCLDY    52  40  63 S3        30.22F
KEARNEY        MOCLDY    50  39  66 S3        30.22F
ORD            PTCLDY    42  37  82 CALM      30.21R
YORK           MOCLDY    50  45  81 SW7       30.24R
AURORA         PTCLDY    49  41  74 SW3       30.23R
LEXINGTON      MOCLDY    47  41  79 S6        30.21F
HOLDREGE       MOCLDY    49  39  68 S5        30.22F
HEBRON         MOCLDY    50  42  72 CALM      30.24R

...NEBRASKA PANHANDLE...

CITY           SKY/WX    TMP DP  RH WIND       PRES   REMARKS
CHADRON        CLOUDY    54  44  69 SE14      30.12F
ALLIANCE       CLOUDY    51  44  77 SE10      30.14F
SCOTTSBLUFF    CLOUDY    51  45  79 E13       30.11F
SIDNEY         CLOUDY    49  44  83 SE12      30.14F

...WESTERN AND NORTH CENTRAL NEBRASKA...

CITY           SKY/WX    TMP DP  RH WIND       PRES   REMARKS
VALENTINE      CLEAR     50  37  61 S9        30.19R
AINSWORTH      CLEAR     44  38  77 S9        30.20S
ONEILL         CLEAR     46  41  82 S5        30.21R
BROKEN BOW     PTCLDY    44  40  85 CALM      30.21S
IMPERIAL       CLOUDY    51  46  83 SE7       30.18S
NORTH PLATTE   CLOUDY    53  42  66 SE7       30.21S
MCCOOK         MOCLDY    49  43  80 S7        30.20S

...EASTERN NEBRASKA...

CITY           SKY/WX    TMP DP  RH WIND       PRES   REMARKS
NORFOLK        CLEAR     51  38  60 W5        30.20R
SO SIOUX CITY  CLEAR     52  37  56 NW5       30.17R
TEKAMAH        FAIR      55  40  56 SW9       30.18R
COLUMBUS       PTCLDY    52  37  58 W6        30.24R
ALBION         CLEAR     49  37  63 CALM      30.22R
OMAHA EPPLEY   PTCLDY    60  40  47 W5        30.19R
OFFUTT AFB     PTCLDY    54  42  62 W5        30.18S
MILLARD        PTCLDY    58  43  56 W3        30.19S
LINCOLN        PTCLDY    55  41  59 SW6       30.23R
NEBRASKA CITY  CLEAR     52  39  62 W10       30.20S
BEATRICE       PTCLDY    52  43  72 SW3       30.23S
FALLS CITY     MOCLDY    54  44  69 SW9       30.21R

...NORTHERN KANSAS...

CITY           SKY/WX    TMP DP  RH WIND       PRES   REMARKS
GOODLAND       CLOUDY    50  44  80 SE9       30.19F
HILL CITY      MOCLDY    48  43  82 E3        30.21F
NORTON         CLEAR     48  41  76 E3        30.20F
PHILLIPSBURG   CLEAR     52  45  76 NE3       30.22F
SMITH CENTER   CLEAR     48  45  87 SE5       30.22F
HAYS           MOCLDY    48  39  71 E6        30.21S
RUSSELL        MOCLDY    50  45  83 SE7       30.20F
CONCORDIA      MOCLDY    51  42  71 CALM      30.22F
SALINA         CLEAR     52  45  77 SE3       30.22F
TOPEKA         PTCLDY    52  49  89 CALM      30.24S



USA.gov is the U.S. government's official web portal to all federal, state and local government web resources and services.